contact:dominique.lefevre@mio.osupytheas.fr, maurice.libes@osupytheas.fr, didier.mallarino@osupytheas.fr
Project:EMSO http://www.emso-fr.org/EMSO-France
Depth: 2436.0 m
Title:EMSO Ligure Ouest : Data MII capteur AQUADOPP
Date,Latitude,Longitude,X_East,Y_North,Z_Up,Amplitude_X,Amplitude_Y,Amplitude_Z,Batterie,SoundSpeed,Heading,Pitch,Roll,Pressure,TIS,Speed,Direction
, degrees North, degrees East, m.s-1, m.s-1,m.s-1, 1, 1, 1, Volt, m.s-1, degree, degree, degree, dbar, degree_C, m.s-1, degree
2023-08-26T00:04:03,42.805,6.029,-0.002,0.002,-0.003,102.0,102.0,102.0,13.4,1505.2,327.0,-0.7,1.9,2471.532,13.29,0.002,315.0
2023-08-26T00:07:03,42.805,6.029,-0.003,0.016,-0.012,101.0,103.0,101.0,13.3,1505.2,336.1,-0.7,1.8,2471.551,13.29,0.016,349.4
2023-08-26T00:10:03,42.805,6.029,0.021,-0.007,0.018,103.0,103.0,101.0,13.4,1505.2,327.8,-0.8,1.8,2471.556,13.29,0.022,108.4
2023-08-26T00:13:03,42.805,6.029,0.012,0.022,0.003,102.0,103.0,100.0,13.4,1505.2,331.1,-0.8,1.8,2471.525,13.29,0.025,28.6
2023-08-26T00:16:03,42.805,6.029,-0.009,0.023,0.0,102.0,102.0,102.0,13.3,1505.2,326.5,-0.7,1.8,2471.525,13.29,0.024,338.6
2023-08-26T00:19:03,42.805,6.029,0.008,0.035,0.005,101.0,104.0,101.0,13.4,1505.2,347.9,-0.8,1.8,2471.5,13.29,0.035,12.9
2023-08-26T00:22:03,42.805,6.029,0.025,-0.01,-0.025,103.0,103.0,100.0,13.3,1505.2,322.0,-0.7,1.8,2471.524,13.29,0.026,111.8
2023-08-26T00:25:03,42.805,6.029,0.019,0.005,-0.028,103.0,104.0,100.0,13.4,1505.2,341.2,-0.8,1.8,2471.487,13.29,0.019,75.3
2023-08-26T00:28:03,42.805,6.029,0.013,0.017,0.008,102.0,101.0,102.0,13.4,1505.2,342.9,-0.7,1.8,2471.519,13.29,0.021,37.4
2023-08-26T00:31:03,42.805,6.029,0.033,0.005,-0.002,102.0,102.0,101.0,13.4,1505.2,332.1,-0.8,1.8,2471.515,13.29,0.033,81.4
2023-08-26T00:34:03,42.805,6.029,0.024,-0.014,-0.009,103.0,103.0,100.0,13.3,1505.2,337.3,-0.8,1.8,2471.502,13.29,0.027,120.3
2023-08-26T00:37:03,42.805,6.029,0.006,0.018,0.002,102.0,103.0,101.0,13.3,1505.2,338.4,-0.7,1.8,2471.496,13.29,0.018,18.4
2023-08-26T00:40:03,42.805,6.029,-0.022,0.013,-0.03,102.0,103.0,100.0,13.4,1505.2,327.1,-0.8,1.8,2471.527,13.29,0.025,300.6
2023-08-26T00:43:03,42.805,6.029,0.021,0.011,-0.006,103.0,102.0,101.0,13.4,1505.2,343.2,-0.8,1.8,2471.516,13.29,0.023,62.4
2023-08-26T00:46:03,42.805,6.029,0.005,0.028,0.002,104.0,101.0,102.0,13.4,1505.2,337.0,-0.8,1.8,2471.492,13.29,0.028,10.1
2023-08-26T00:49:03,42.805,6.029,0.005,0.026,0.01,103.0,102.0,101.0,13.4,1505.2,341.5,-0.8,1.8,2471.47,13.29,0.026,10.9
2023-08-26T00:52:03,42.805,6.029,0.008,0.011,-0.03,103.0,104.0,101.0,13.4,1505.2,344.9,-0.8,1.8,2471.503,13.29,0.013,36.0
2023-08-26T00:55:03,42.805,6.029,0.007,0.022,-0.016,101.0,103.0,102.0,13.3,1505.2,337.4,-0.8,1.8,2471.529,13.29,0.023,17.6
2023-08-26T00:58:03,42.805,6.029,-0.001,0.023,-0.027,103.0,102.0,101.0,13.4,1505.2,338.6,-0.7,1.8,2471.529,13.29,0.023,357.5
2023-08-26T01:04:03,42.805,6.029,0.008,-0.006,-0.022,104.0,104.0,102.0,13.3,1505.2,337.8,-0.8,1.9,2471.59,13.29,0.01,126.9
2023-08-26T01:07:03,42.805,6.029,0.015,-0.002,-0.013,101.0,103.0,101.0,13.4,1505.2,355.5,-0.7,1.8,2471.542,13.29,0.015,97.6
2023-08-26T01:10:03,42.805,6.029,0.004,0.016,-0.01,103.0,103.0,101.0,13.3,1505.2,325.7,-0.8,1.8,2471.538,13.29,0.016,14.0
2023-08-26T01:13:03,42.805,6.029,0.023,-0.002,-0.009,100.0,103.0,102.0,13.4,1505.2,351.7,-0.8,1.8,2471.523,13.29,0.023,95.0
2023-08-26T01:16:03,42.805,6.029,0.002,0.01,-0.004,100.0,103.0,101.0,13.3,1505.2,336.6,-0.8,1.8,2471.568,13.29,0.01,11.3
2023-08-26T01:19:03,42.805,6.029,0.016,0.003,-0.012,101.0,105.0,101.0,13.4,1505.2,351.5,-0.8,1.8,2471.511,13.29,0.016,79.4
2023-08-26T01:22:03,42.805,6.029,0.038,-0.006,-0.001,102.0,102.0,100.0,13.4,1505.2,341.5,-0.8,1.8,2471.497,13.29,0.038,99.0
2023-08-26T01:25:03,42.805,6.029,0.035,0.016,0.009,102.0,103.0,101.0,13.3,1505.2,352.8,-0.8,1.8,2471.528,13.29,0.038,65.4
2023-08-26T01:28:03,42.805,6.029,0.014,0.006,-0.005,102.0,102.0,100.0,13.4,1505.2,333.8,-0.7,1.8,2471.521,13.29,0.015,66.8
2023-08-26T01:31:03,42.805,6.029,0.004,0.002,-0.019,103.0,102.0,101.0,13.4,1505.2,346.5,-0.8,1.8,2471.49,13.29,0.004,63.4
2023-08-26T01:34:03,42.805,6.029,0.026,0.015,-0.042,101.0,103.0,101.0,13.4,1505.2,351.8,-0.8,1.8,2471.481,13.29,0.03,60.0
2023-08-26T01:37:03,42.805,6.029,-0.006,0.043,-0.01,102.0,104.0,100.0,13.3,1505.2,322.3,-0.7,1.8,2471.51,13.29,0.043,352.1
2023-08-26T01:40:03,42.805,6.029,0.014,0.032,0.0,103.0,102.0,100.0,13.3,1505.2,347.4,-0.8,1.8,2471.531,13.29,0.034,23.6
2023-08-26T01:43:03,42.805,6.029,0.019,-0.003,-0.023,102.0,102.0,100.0,13.3,1505.2,326.0,-0.8,1.8,2471.542,13.29,0.019,99.0
2023-08-26T01:46:03,42.805,6.029,0.013,0.0,-0.022,103.0,103.0,100.0,13.4,1505.2,332.1,-0.8,1.8,2471.54,13.29,0.013,90.0
2023-08-26T01:49:03,42.805,6.029,0.002,0.023,-0.01,102.0,101.0,102.0,13.4,1505.2,335.9,-0.7,1.8,2471.487,13.29,0.023,5.0
2023-08-26T01:52:03,42.805,6.029,0.001,0.019,-0.006,102.0,103.0,101.0,13.4,1505.2,338.9,-0.8,1.8,2471.53,13.29,0.019,3.0
2023-08-26T01:55:03,42.805,6.029,0.0,0.009,-0.022,103.0,102.0,101.0,13.3,1505.2,355.6,-0.8,1.8,2471.488,13.29,0.009,0.0
2023-08-26T01:58:03,42.805,6.029,0.035,0.006,-0.028,102.0,102.0,101.0,13.4,1505.2,341.1,-0.7,1.9,2471.496,13.29,0.035,80.3
2023-08-26T02:04:03,42.805,6.029,0.002,0.022,-0.018,103.0,102.0,102.0,13.4,1505.2,329.8,-0.8,1.8,2471.516,13.28,0.022,5.2
2023-08-26T02:07:03,42.805,6.029,0.009,-0.007,-0.03,103.0,103.0,102.0,13.3,1505.2,345.9,-0.8,1.8,2471.544,13.29,0.011,127.9
2023-08-26T02:10:03,42.805,6.029,0.026,0.0,-0.003,103.0,102.0,100.0,13.3,1505.2,322.1,-0.7,1.8,2471.533,13.29,0.026,90.0
2023-08-26T02:13:03,42.805,6.029,0.011,0.003,-0.002,102.0,102.0,101.0,13.4,1505.2,344.0,-0.7,1.8,2471.538,13.29,0.011,74.7
2023-08-26T02:16:03,42.805,6.029,0.006,0.013,0.007,102.0,104.0,100.0,13.4,1505.2,350.9,-0.7,1.8,2471.517,13.29,0.014,24.8
2023-08-26T02:19:03,42.805,6.029,-0.004,0.002,-0.028,103.0,103.0,100.0,13.3,1505.2,321.6,-0.8,1.8,2471.555,13.29,0.004,296.6
2023-08-26T02:22:03,42.805,6.029,0.003,0.005,0.007,103.0,103.0,100.0,13.4,1505.2,335.7,-0.7,1.8,2471.484,13.29,0.005,31.0
2023-08-26T02:25:03,42.805,6.029,0.02,-0.009,-0.002,102.0,103.0,101.0,13.3,1505.2,346.7,-0.8,1.8,2471.475,13.29,0.021,114.2
2023-08-26T02:28:03,42.805,6.029,0.023,0.027,0.007,101.0,104.0,101.0,13.3,1505.2,334.4,-0.8,1.8,2471.493,13.29,0.035,40.4
2023-08-26T02:31:03,42.805,6.029,-0.003,0.015,-0.012,102.0,101.0,101.0,13.4,1505.2,349.5,-0.7,1.8,2471.486,13.29,0.015,348.7
2023-08-26T02:34:03,42.805,6.029,0.004,0.003,-0.037,103.0,102.0,101.0,13.3,1505.2,343.0,-0.8,1.8,2471.504,13.29,0.005,53.1
2023-08-26T02:37:03,42.805,6.029,0.017,0.014,-0.025,103.0,103.0,100.0,13.4,1505.2,352.1,-0.8,1.8,2471.486,13.29,0.022,50.5
2023-08-26T02:40:03,42.805,6.029,0.005,-0.011,-0.046,102.0,103.0,100.0,13.3,1505.2,343.7,-0.7,1.8,2471.51,13.29,0.012,155.6
2023-08-26T02:43:03,42.805,6.029,0.026,0.015,-0.006,102.0,102.0,101.0,13.4,1505.2,350.1,-0.8,1.8,2471.503,13.29,0.03,60.0
2023-08-26T02:46:03,42.805,6.029,0.018,0.005,0.003,102.0,103.0,101.0,13.4,1505.2,343.0,-0.8,1.8,2471.487,13.29,0.018,74.5
2023-08-26T02:49:03,42.805,6.029,-0.003,0.024,0.01,103.0,103.0,101.0,13.3,1505.2,332.0,-0.8,1.8,2471.489,13.29,0.024,352.9
2023-08-26T02:52:03,42.805,6.029,0.02,0.016,-0.022,102.0,101.0,102.0,13.4,1505.2,337.2,-0.8,1.8,2471.471,13.29,0.025,51.3
2023-08-26T02:55:03,42.805,6.029,0.036,0.003,-0.027,102.0,102.0,101.0,13.4,1505.2,341.5,-0.8,1.8,2471.487,13.29,0.036,85.2
2023-08-26T02:58:03,42.805,6.029,0.014,0.02,0.008,102.0,102.0,101.0,13.4,1505.2,330.2,-0.8,1.8,2471.503,13.29,0.024,35.0
2023-08-26T03:04:03,42.805,6.029,0.008,0.007,0.002,102.0,102.0,101.0,13.3,1505.2,327.8,-0.7,1.8,2471.547,13.28,0.01,48.8
2023-08-26T03:07:03,42.805,6.029,0.006,-0.001,0.012,102.0,103.0,100.0,13.4,1505.2,343.4,-0.7,1.8,2471.543,13.29,0.006,99.5
2023-08-26T03:10:03,42.805,6.029,0.021,0.009,0.01,102.0,102.0,101.0,13.4,1505.2,337.1,-0.7,1.8,2471.558,13.29,0.022,66.8
2023-08-26T03:13:03,42.805,6.029,0.021,0.014,0.007,102.0,102.0,101.0,13.3,1505.2,345.6,-0.8,1.9,2471.514,13.29,0.025,56.3
2023-08-26T03:16:03,42.805,6.029,0.011,0.008,-0.009,102.0,102.0,101.0,13.4,1505.2,329.9,-0.8,1.8,2471.515,13.29,0.013,54.0
2023-08-26T03:19:03,42.805,6.029,0.009,0.03,0.005,102.0,102.0,100.0,13.4,1505.2,332.9,-0.8,1.9,2471.489,13.29,0.031,16.7
2023-08-26T03:22:03,42.805,6.029,0.031,0.002,0.006,102.0,103.0,101.0,13.4,1505.2,332.3,-0.8,1.8,2471.511,13.29,0.031,86.3
2023-08-26T03:25:03,42.805,6.029,0.022,0.0,-0.026,102.0,102.0,101.0,13.4,1505.2,333.4,-0.8,1.8,2471.494,13.29,0.022,90.0
2023-08-26T03:28:03,42.805,6.029,0.035,0.011,0.013,102.0,102.0,101.0,13.4,1505.2,336.0,-0.8,1.8,2471.5,13.29,0.036,72.6
2023-08-26T03:31:03,42.805,6.029,0.022,0.004,-0.003,101.0,103.0,100.0,13.3,1505.2,330.1,-0.7,1.8,2471.506,13.29,0.022,79.7
2023-08-26T03:34:03,42.805,6.029,0.016,-0.006,-0.019,101.0,102.0,101.0,13.4,1505.2,350.5,-0.8,1.8,2471.481,13.29,0.017,110.6
2023-08-26T03:37:03,42.805,6.029,0.02,-0.015,-0.018,101.0,102.0,101.0,13.3,1505.2,342.3,-0.8,1.8,2471.504,13.29,0.025,126.9
2023-08-26T03:40:03,42.805,6.029,0.011,0.008,0.003,101.0,102.0,101.0,13.4,1505.2,346.5,-0.8,1.8,2471.49,13.29,0.013,54.0
2023-08-26T03:43:03,42.805,6.029,0.015,0.018,-0.002,101.0,103.0,102.0,13.4,1505.2,335.9,-0.8,1.8,2471.491,13.29,0.023,39.8
2023-08-26T03:46:03,42.805,6.029,0.029,-0.007,-0.018,102.0,102.0,100.0,13.4,1505.2,333.4,-0.8,1.9,2471.485,13.29,0.029,103.6
2023-08-26T03:49:03,42.805,6.029,0.016,0.015,-0.007,102.0,102.0,101.0,13.4,1505.2,332.4,-0.8,1.8,2471.466,13.29,0.021,46.9
2023-08-26T03:52:03,42.805,6.029,0.011,0.011,-0.02,102.0,103.0,101.0,13.3,1505.2,333.9,-0.8,1.8,2471.476,13.29,0.015,45.0
2023-08-26T03:55:03,42.805,6.029,0.018,0.024,-0.006,103.0,102.0,100.0,13.4,1505.2,331.9,-0.7,1.8,2471.481,13.29,0.03,36.9
2023-08-26T03:58:03,42.805,6.029,0.041,0.004,-0.002,101.0,101.0,101.0,13.4,1505.2,331.0,-0.7,1.8,2471.462,13.29,0.041,84.4
2023-08-26T04:04:03,42.805,6.029,0.008,0.028,-0.002,103.0,102.0,100.0,13.4,1505.2,343.9,-0.8,1.8,2471.482,13.28,0.029,15.9
2023-08-26T04:07:03,42.805,6.029,0.041,-0.017,-0.007,101.0,104.0,100.0,13.3,1505.2,350.9,-0.7,1.8,2471.54,13.28,0.044,112.5
2023-08-26T04:10:03,42.805,6.029,0.024,0.012,-0.01,101.0,103.0,101.0,13.4,1505.2,332.9,-0.8,1.8,2471.496,13.29,0.026,63.4
2023-08-26T04:13:03,42.805,6.029,0.028,-0.007,-0.033,102.0,102.0,101.0,13.3,1505.2,331.1,-0.8,1.8,2471.538,13.29,0.028,104.0
2023-08-26T04:16:03,42.805,6.029,0.008,0.006,0.01,102.0,102.0,101.0,13.4,1505.2,333.0,-0.7,1.8,2471.508,13.29,0.01,53.1
2023-08-26T04:19:03,42.805,6.029,0.009,0.019,-0.021,102.0,103.0,100.0,13.4,1505.2,337.1,-0.8,1.8,2471.481,13.29,0.021,25.3
2023-08-26T04:22:03,42.805,6.029,0.02,0.022,0.007,103.0,103.0,99.0,13.4,1505.2,334.6,-0.8,1.8,2471.468,13.29,0.029,42.3
2023-08-26T04:25:03,42.805,6.029,0.025,0.0,-0.032,101.0,102.0,101.0,13.4,1505.2,329.9,-0.8,1.8,2471.498,13.29,0.025,90.0
2023-08-26T04:28:03,42.805,6.029,0.03,0.0,-0.03,102.0,101.0,101.0,13.3,1505.2,321.3,-0.8,1.8,2471.508,13.29,0.03,90.0
2023-08-26T04:31:03,42.805,6.029,0.014,0.022,-0.013,101.0,103.0,101.0,13.4,1505.2,332.1,-0.8,1.8,2471.521,13.29,0.026,32.5
2023-08-26T04:34:03,42.805,6.029,0.03,-0.002,-0.024,101.0,102.0,101.0,13.4,1505.2,329.3,-0.8,1.8,2471.487,13.29,0.03,93.8
2023-08-26T04:37:03,42.805,6.029,0.04,0.006,-0.007,101.0,101.0,101.0,13.4,1505.2,337.8,-0.7,1.8,2471.507,13.29,0.04,81.5
2023-08-26T04:40:03,42.805,6.029,0.037,-0.007,-0.013,101.0,103.0,100.0,13.4,1505.2,332.5,-0.7,1.8,2471.476,13.29,0.037,100.7
2023-08-26T04:43:03,42.805,6.029,0.032,-0.003,-0.03,102.0,102.0,101.0,13.3,1505.2,350.5,-0.8,1.8,2471.502,13.29,0.032,95.4
2023-08-26T04:46:03,42.805,6.029,0.03,0.0,-0.026,102.0,103.0,100.0,13.4,1505.2,334.6,-0.7,1.8,2471.462,13.29,0.03,90.0
2023-08-26T04:49:03,42.805,6.029,0.06,0.011,0.02,101.0,101.0,102.0,13.4,1505.2,333.4,-0.8,1.8,2471.492,13.29,0.06,79.6
2023-08-26T04:52:03,42.805,6.029,0.003,-0.005,-0.009,102.0,101.0,101.0,13.4,1505.2,349.3,-0.7,1.9,2471.469,13.29,0.005,149.0
2023-08-26T04:55:03,42.805,6.029,0.027,0.004,0.022,102.0,102.0,100.0,13.3,1505.2,344.5,-0.8,1.8,2471.456,13.29,0.027,81.6
2023-08-26T04:58:03,42.805,6.029,0.028,-0.005,-0.018,102.0,103.0,106.0,13.4,1505.2,334.6,-0.8,1.8,2471.493,13.29,0.028,100.1
2023-08-26T05:04:03,42.805,6.029,0.027,0.007,0.0,102.0,103.0,100.0,13.4,1505.2,347.6,-0.8,1.8,2471.541,13.28,0.027,75.5
2023-08-26T05:07:03,42.805,6.029,0.019,-0.028,-0.002,102.0,103.0,101.0,13.4,1505.2,336.9,-0.7,1.8,2471.561,13.28,0.033,145.8
2023-08-26T05:10:03,42.805,6.029,0.013,-0.002,0.014,103.0,102.0,101.0,13.4,1505.2,330.4,-0.8,1.8,2471.517,13.29,0.013,98.7
2023-08-26T05:13:03,42.805,6.029,0.02,-0.002,-0.004,101.0,103.0,101.0,13.4,1505.2,331.4,-0.8,1.8,2471.499,13.29,0.02,95.7
2023-08-26T05:16:03,42.805,6.029,0.014,0.032,-0.009,102.0,103.0,103.0,13.4,1505.2,336.3,-0.8,1.8,2471.488,13.29,0.034,23.6
2023-08-26T05:19:03,42.805,6.029,0.017,0.012,0.012,101.0,101.0,102.0,13.3,1505.2,336.5,-0.8,1.8,2471.465,13.29,0.02,54.8
2023-08-26T05:22:03,42.805,6.029,-0.005,0.037,-0.017,101.0,102.0,101.0,13.3,1505.2,347.4,-0.7,1.8,2471.488,13.29,0.037,352.3
2023-08-26T05:25:03,42.805,6.029,0.014,0.024,-0.01,102.0,101.0,100.0,13.4,1505.2,339.8,-0.8,1.8,2471.458,13.29,0.027,30.3
2023-08-26T05:28:03,42.805,6.029,0.005,0.001,-0.011,102.0,102.0,101.0,13.4,1505.2,329.7,-0.8,1.8,2471.479,13.29,0.005,78.7
2023-08-26T05:31:03,42.805,6.029,0.009,0.009,-0.027,102.0,103.0,101.0,13.3,1505.2,338.4,-0.8,1.8,2471.474,13.29,0.012,45.0
2023-08-26T05:37:03,42.805,6.029,0.014,-0.014,-0.006,103.0,101.0,101.0,13.4,1505.2,324.0,-0.8,1.8,2471.459,13.29,0.019,135.0
2023-08-26T05:40:03,42.805,6.029,0.032,-0.021,-0.018,100.0,103.0,101.0,13.3,1505.2,348.6,-0.8,1.9,2471.463,13.29,0.038,123.3
2023-08-26T05:43:03,42.805,6.029,0.027,0.0,-0.024,102.0,104.0,100.0,13.3,1505.2,346.4,-0.8,1.8,2471.477,13.29,0.026,90.0
2023-08-26T05:46:03,42.805,6.029,0.019,-0.014,-0.031,102.0,103.0,100.0,13.3,1505.2,344.5,-0.8,1.8,2471.485,13.29,0.023,126.4
2023-08-26T05:49:03,42.805,6.029,0.025,0.002,-0.046,102.0,102.0,100.0,13.4,1505.2,332.9,-0.8,1.8,2471.48,13.29,0.025,85.4
2023-08-26T05:52:03,42.805,6.029,0.017,-0.019,-0.03,100.0,103.0,101.0,13.3,1505.2,344.4,-0.8,1.8,2471.444,13.29,0.025,138.2
2023-08-26T05:55:03,42.805,6.029,0.023,-0.014,-0.023,101.0,101.0,101.0,13.4,1505.2,331.9,-0.8,1.8,2471.452,13.29,0.026,121.3
2023-08-26T05:58:03,42.805,6.029,0.007,0.004,-0.016,101.0,103.0,100.0,13.4,1505.2,351.7,-0.7,1.8,2471.484,13.29,0.008,60.3
2023-08-26T06:04:03,42.805,6.029,0.01,0.011,0.026,101.0,100.0,101.0,13.3,1505.2,345.9,-0.8,1.8,2471.51,13.28,0.014,42.3
2023-08-26T06:07:03,42.805,6.029,0.022,0.009,-0.037,102.0,101.0,104.0,13.3,1505.2,333.9,-0.8,1.8,2471.49,13.29,0.023,67.8
2023-08-26T06:10:03,42.805,6.029,0.003,0.018,-0.016,102.0,101.0,101.0,13.3,1505.2,326.5,-0.7,1.8,2471.511,13.29,0.018,9.5
2023-08-26T06:13:03,42.805,6.029,0.013,-0.003,-0.028,103.0,102.0,100.0,13.4,1505.2,336.0,-0.8,1.8,2471.466,13.29,0.013,103.0
2023-08-26T06:16:03,42.805,6.029,0.011,-0.004,-0.046,101.0,103.0,100.0,13.4,1505.2,329.8,-0.7,1.8,2471.499,13.29,0.011,110.0
2023-08-26T06:19:03,42.805,6.029,0.011,0.009,-0.02,102.0,101.0,101.0,13.4,1505.2,327.7,-0.7,1.8,2471.443,13.29,0.014,50.7
2023-08-26T06:22:03,42.805,6.029,-0.01,0.016,-0.031,102.0,102.0,101.0,13.4,1505.2,339.4,-0.8,1.8,2471.464,13.29,0.018,328.0
2023-08-26T06:25:03,42.805,6.029,0.039,0.011,-0.015,101.0,102.0,101.0,13.4,1505.2,328.5,-0.8,1.8,2471.482,13.29,0.04,74.3
2023-08-26T06:28:03,42.805,6.029,0.04,-0.026,-0.015,102.0,103.0,100.0,13.4,1505.2,344.3,-0.8,1.8,2471.444,13.29,0.047,123.0
2023-08-26T06:31:03,42.805,6.029,0.012,0.004,-0.022,101.0,103.0,101.0,13.3,1505.2,344.0,-0.8,1.8,2471.482,13.29,0.012,71.6
2023-08-26T06:34:03,42.805,6.029,0.001,0.023,0.009,102.0,102.0,101.0,13.4,1505.2,323.1,-0.7,1.8,2471.444,13.29,0.023,2.5
2023-08-26T06:37:03,42.805,6.029,0.027,-0.026,-0.042,102.0,102.0,101.0,13.4,1505.2,339.1,-0.8,1.8,2471.459,13.29,0.037,133.9
2023-08-26T06:40:03,42.805,6.029,0.029,-0.002,0.003,102.0,102.0,101.0,13.3,1505.2,333.9,-0.8,1.8,2471.416,13.29,0.029,93.9
2023-08-26T06:43:03,42.805,6.029,-0.002,0.01,-0.032,102.0,102.0,100.0,13.4,1505.2,335.9,-0.8,1.8,2471.427,13.29,0.01,348.7
2023-08-26T06:46:03,42.805,6.029,0.023,0.002,-0.026,100.0,102.0,101.0,13.3,1505.2,328.8,-0.8,1.8,2471.429,13.29,0.023,85.0
2023-08-26T06:49:03,42.805,6.029,0.017,-0.005,-0.02,102.0,101.0,102.0,13.4,1505.2,329.8,-0.8,1.8,2471.419,13.29,0.017,106.4
2023-08-26T06:52:03,42.805,6.029,0.009,-0.011,0.015,104.0,105.0,101.0,13.4,1505.2,338.5,-0.8,1.8,2471.418,13.29,0.014,140.7
2023-08-26T06:55:03,42.805,6.029,0.013,-0.001,-0.026,102.0,101.0,101.0,13.4,1505.2,328.0,-0.7,1.8,2471.418,13.29,0.013,94.4
2023-08-26T06:58:03,42.805,6.029,0.016,-0.002,-0.027,103.0,101.0,102.0,13.4,1505.2,343.0,-0.8,1.8,2471.456,13.29,0.016,97.1
2023-08-26T07:04:03,42.805,6.029,0.005,-0.007,-0.043,102.0,102.0,101.0,13.4,1505.2,325.2,-0.8,1.8,2471.472,13.28,0.008,144.5
2023-08-26T07:07:03,42.805,6.029,0.02,0.012,-0.001,102.0,103.0,100.0,13.4,1505.2,330.1,-0.7,1.8,2471.477,13.29,0.023,59.0
2023-08-26T07:10:03,42.805,6.029,0.017,-0.004,-0.015,102.0,103.0,101.0,13.4,1505.2,338.2,-0.8,1.8,2471.49,13.29,0.017,103.2
2023-08-26T07:13:03,42.805,6.029,0.004,0.02,0.0,103.0,101.0,102.0,13.4,1505.2,336.3,-0.8,1.9,2471.446,13.29,0.02,11.3
2023-08-26T07:16:03,42.805,6.029,0.034,-0.01,-0.037,102.0,102.0,102.0,13.3,1505.2,331.6,-0.8,1.9,2471.437,13.29,0.035,106.4
2023-08-26T07:19:03,42.805,6.029,-0.003,0.002,-0.048,106.0,101.0,101.0,13.4,1505.2,330.2,-0.7,1.8,2471.447,13.29,0.003,303.7
2023-08-26T07:22:03,42.805,6.029,0.025,-0.004,-0.034,101.0,103.0,100.0,13.4,1505.2,333.8,-0.7,1.8,2471.452,13.29,0.025,99.1
2023-08-26T07:25:03,42.805,6.029,0.028,0.008,-0.016,102.0,102.0,100.0,13.4,1505.2,332.5,-0.7,1.9,2471.447,13.29,0.029,74.1
2023-08-26T07:28:03,42.805,6.029,0.029,0.007,0.016,102.0,102.0,101.0,13.4,1505.2,345.7,-0.8,1.8,2471.401,13.29,0.029,76.4
2023-08-26T07:31:03,42.805,6.029,0.004,0.016,-0.016,101.0,101.0,102.0,13.4,1505.2,331.1,-0.8,1.9,2471.449,13.29,0.016,14.0
2023-08-26T07:34:03,42.805,6.029,0.03,-0.006,-0.011,102.0,102.0,101.0,13.4,1505.2,331.7,-0.7,1.8,2471.47,13.29,0.03,101.3
2023-08-26T07:37:03,42.805,6.029,0.019,0.007,-0.003,102.0,102.0,100.0,13.4,1505.2,326.0,-0.8,1.8,2471.425,13.29,0.02,69.8
2023-08-26T07:40:03,42.805,6.029,0.023,0.008,-0.011,100.0,104.0,101.0,13.4,1505.2,329.6,-0.7,1.8,2471.432,13.29,0.024,70.8
2023-08-26T07:43:03,42.805,6.029,0.014,-0.001,-0.003,102.0,102.0,101.0,13.3,1505.2,331.0,-0.7,1.8,2471.416,13.29,0.014,94.1
2023-08-26T07:46:03,42.805,6.029,0.014,-0.008,-0.01,101.0,102.0,100.0,13.4,1505.2,334.8,-0.7,1.8,2471.408,13.29,0.016,119.7
2023-08-26T07:49:03,42.805,6.029,0.002,-0.006,-0.034,102.0,102.0,100.0,13.3,1505.2,345.4,-0.8,1.8,2471.416,13.29,0.006,161.6
2023-08-26T07:52:03,42.805,6.029,0.015,-0.003,0.003,101.0,102.0,100.0,13.4,1505.2,349.6,-0.8,1.8,2471.418,13.29,0.015,101.3
2023-08-26T07:55:03,42.805,6.029,0.01,0.021,-0.002,102.0,102.0,101.0,13.4,1505.2,332.1,-0.7,1.8,2471.441,13.29,0.023,25.5
2023-08-26T07:58:03,42.805,6.029,0.032,-0.003,0.004,101.0,102.0,100.0,13.4,1505.2,341.5,-0.8,1.8,2471.405,13.29,0.032,95.4
2023-08-26T08:04:03,42.805,6.029,0.003,0.014,-0.032,105.0,102.0,100.0,13.4,1505.2,328.8,-0.8,1.8,2471.454,13.29,0.014,12.1
2023-08-26T08:07:03,42.805,6.029,0.008,-0.005,-0.027,103.0,102.0,101.0,13.4,1505.2,330.3,-0.8,1.8,2471.455,13.29,0.009,122.0
2023-08-26T08:10:03,42.805,6.029,0.001,-0.009,-0.003,101.0,101.0,101.0,13.3,1505.2,327.8,-0.8,1.8,2471.449,13.29,0.009,173.7
2023-08-26T08:13:03,42.805,6.029,0.01,-0.029,-0.071,102.0,101.0,101.0,13.3,1505.2,344.9,-0.7,1.8,2471.449,13.29,0.03,161.0
2023-08-26T08:16:03,42.805,6.029,-0.001,0.014,-0.03,102.0,102.0,100.0,13.4,1505.2,335.4,-0.7,1.8,2471.433,13.29,0.014,355.9
2023-08-26T08:19:03,42.805,6.029,0.007,-0.009,-0.033,102.0,101.0,102.0,13.4,1505.2,351.5,-0.8,1.8,2471.462,13.29,0.011,142.1
2023-08-26T08:22:03,42.805,6.029,0.018,0.002,0.004,102.0,103.0,101.0,13.3,1505.2,325.5,-0.8,1.8,2471.449,13.29,0.018,83.7
2023-08-26T08:25:03,42.805,6.029,0.007,0.003,0.007,101.0,103.0,100.0,13.4,1505.2,341.5,-0.8,1.8,2471.439,13.29,0.007,66.8
2023-08-26T08:28:03,42.805,6.029,0.015,-0.044,-0.03,101.0,102.0,101.0,13.4,1505.2,353.4,-0.8,1.8,2471.441,13.29,0.046,161.2
2023-08-26T08:31:03,42.805,6.029,0.009,0.009,0.012,101.0,101.0,101.0,13.4,1505.2,340.4,-0.8,1.8,2471.437,13.29,0.012,45.0
2023-08-26T08:34:03,42.805,6.029,-0.012,0.002,-0.016,101.0,101.0,100.0,13.3,1505.2,337.7,-0.8,1.8,2471.459,13.29,0.012,279.5
2023-08-26T08:37:03,42.805,6.029,0.015,0.011,0.002,103.0,107.0,100.0,13.3,1505.2,326.0,-0.7,1.8,2471.422,13.29,0.018,53.7
2023-08-26T08:40:03,42.805,6.029,-0.004,-0.01,-0.029,102.0,101.0,101.0,13.4,1505.2,326.3,-0.7,1.8,2471.424,13.29,0.01,201.8
2023-08-26T08:43:03,42.805,6.029,0.017,-0.001,-0.001,101.0,102.0,102.0,13.4,1505.2,341.2,-0.8,1.8,2471.435,13.29,0.017,93.4
2023-08-26T08:46:03,42.805,6.029,0.002,0.0,-0.02,102.0,101.0,101.0,13.4,1505.2,342.3,-0.8,1.8,2471.425,13.29,0.002,90.0
2023-08-26T08:49:03,42.805,6.029,0.01,0.0,0.0,101.0,101.0,100.0,13.4,1505.2,322.7,-0.8,1.8,2471.401,13.29,0.01,90.0
2023-08-26T08:52:03,42.805,6.029,0.009,-0.002,-0.02,100.0,102.0,101.0,13.3,1505.2,343.4,-0.8,1.8,2471.422,13.29,0.009,102.5
2023-08-26T08:55:03,42.805,6.029,0.014,-0.019,-0.012,102.0,102.0,100.0,13.4,1505.2,332.9,-0.7,1.8,2471.398,13.29,0.023,143.6
2023-08-26T08:58:03,42.805,6.029,0.001,0.008,-0.025,102.0,102.0,100.0,13.4,1505.2,342.9,-0.8,1.8,2471.396,13.29,0.008,7.1
2023-08-26T09:04:03,42.805,6.029,0.018,-0.005,0.001,103.0,103.0,99.0,13.4,1505.2,324.8,-0.7,1.8,2471.477,13.29,0.018,105.5
2023-08-26T09:07:03,42.805,6.029,0.003,-0.017,-0.043,101.0,102.0,101.0,13.4,1505.2,343.4,-0.8,1.8,2471.465,13.29,0.017,170.0
2023-08-26T09:10:03,42.805,6.029,-0.005,0.017,-0.016,101.0,102.0,101.0,13.3,1505.2,343.0,-0.8,1.8,2471.473,13.29,0.017,343.6
2023-08-26T09:13:03,42.805,6.029,0.011,-0.019,-0.07,104.0,101.0,100.0,13.4,1505.2,344.8,-0.8,1.8,2471.455,13.29,0.021,149.9
2023-08-26T09:16:03,42.805,6.029,0.016,-0.005,-0.02,104.0,101.0,101.0,13.4,1505.2,329.2,-0.7,1.8,2471.42,13.29,0.016,107.4
2023-08-26T09:19:03,42.805,6.029,-0.002,-0.013,-0.043,100.0,102.0,101.0,13.4,1505.2,337.8,-0.8,1.9,2471.447,13.29,0.013,188.7
2023-08-26T09:22:03,42.805,6.029,0.017,0.005,-0.012,101.0,102.0,102.0,13.4,1505.2,343.3,-0.7,1.8,2471.423,13.29,0.017,73.6
2023-08-26T09:25:03,42.805,6.029,0.017,0.009,0.008,101.0,101.0,101.0,13.4,1505.2,353.1,-0.8,1.8,2471.428,13.29,0.019,62.1
2023-08-26T09:28:03,42.805,6.029,-0.011,0.001,-0.042,101.0,106.0,101.0,13.4,1505.2,321.7,-0.8,1.8,2471.42,13.29,0.011,275.2
2023-08-26T09:31:03,42.805,6.029,-0.002,0.002,-0.019,102.0,101.0,101.0,13.4,1505.2,329.4,-0.8,1.8,2471.432,13.29,0.002,315.0
2023-08-26T09:34:03,42.805,6.029,-0.006,-0.006,-0.018,100.0,103.0,99.0,13.4,1505.2,327.3,-0.8,1.8,2471.418,13.29,0.008,225.0
2023-08-26T09:37:03,42.805,6.029,0.002,0.0,-0.003,101.0,106.0,101.0,13.3,1505.2,343.2,-0.8,1.8,2471.439,13.29,0.002,90.0
2023-08-26T09:40:03,42.805,6.029,0.012,0.014,0.008,100.0,105.0,101.0,13.3,1505.2,328.3,-0.7,1.8,2471.385,13.29,0.018,40.6
2023-08-26T09:43:03,42.805,6.029,-0.003,-0.026,-0.02,102.0,100.0,101.0,13.3,1505.2,349.3,-0.8,1.8,2471.422,13.29,0.026,186.6
2023-08-26T09:46:03,42.805,6.029,-0.003,-0.019,-0.046,102.0,100.0,101.0,13.4,1505.2,344.6,-0.7,1.8,2471.421,13.29,0.019,189.0
2023-08-26T09:49:03,42.805,6.029,-0.03,0.013,-0.019,99.0,101.0,100.0,13.4,1505.2,347.6,-0.7,1.8,2471.423,13.29,0.032,293.4
2023-08-26T09:52:03,42.805,6.029,0.0,-0.008,-0.055,102.0,101.0,101.0,13.3,1505.2,331.8,-0.8,1.8,2471.426,13.29,0.008,180.0
2023-08-26T09:55:03,42.805,6.029,0.003,-0.003,-0.032,102.0,102.0,100.0,13.4,1505.2,337.8,-0.8,1.8,2471.415,13.29,0.004,135.0
2023-08-26T09:58:03,42.805,6.029,0.019,0.003,-0.003,103.0,101.0,99.0,13.4,1505.2,326.8,-0.8,1.8,2471.434,13.29,0.019,81.0
2023-08-26T10:04:03,42.805,6.029,0.011,0.002,-0.004,102.0,102.0,100.0,13.4,1505.2,342.5,-0.7,1.8,2471.488,13.29,0.011,79.7
2023-08-26T10:07:03,42.805,6.029,-0.008,0.005,0.004,101.0,101.0,100.0,13.4,1505.2,337.0,-0.8,1.8,2471.465,13.29,0.009,302.0